Вернуться в каталог

STARLINK-3248

АктивенСвязьVLEO
NORAD 49748·PAYLOAD·🇺🇸 United States

Запущен Dec 2, 2021 с Cape Canaveral Space Force Station

Loading…

Ближайшие Пролёты (ближайшие 24 часа)

TLE

СвежийSource: CelesTrak SupGP

Эпоха: Sep 14, 2026, 13:40 UTC

1 49748C 21115AA  26257.56993056 -.00016927  00000+0 -48449-3 0  2572
2 49748  53.1611  15.1943 0001236  76.0925 175.1271 15.35394708    15

Отслеживайте STARLINK-3248 в реальном времени с AllMySat

Download on the App Store